Location: Unspecified
(44.0704°N, 88.6889°W)
Time: 07:16:58
(UTC+02:00)

deb Explorer IX - Pass Details

Date: 17 June 2019
Orbit: 539 x 1112 km, 38.8° (Epoch: 22 July)

Event Time Altitude Azimuth Distance (km) Brightness Sun altitude
Rises 05:40:46 0° 272° (W) 3,620 ? -15.8°
Reaches altitude 10° 05:44:46 10° 250° (WSW) 2,542 ? -16.2°
Maximum altitude 05:47:53 14° 219° (SW) 2,126 ? -16.5°
Enters shadow 05:49:31 13° 200° (SSW) 2,165 ? -16.6°
